Regional Weather Roundup
Issued by NWS Glasgow, MT

Home | Current Version | Previous Version | Text Only | Print | Product List | Glossary On
Versions: 1 2 3 4 5 6 7 8 9 10 11 12 13 14 15 16 17 18 19 20 21 22 23 24 25 26 27 28 29 30 31 32 33 34 35 36 37 38 39 40 41
000
ASUS45 KGGW 220315
RWRGGW
HOURLY WEATHER ROUNDUP FOR NORTHEAST MONTANA
NATIONAL WEATHER SERVICE GLASGOW MONTANA
900 PM MDT TUE OCT 21 2014

NOTE: "FAIR" INDICATES FEW OR NO CLOUDS BELOW 12,000 FEET WITH NO
SIGNIFICANT WEATHER AND/OR OBSTRUCTIONS TO VISISBILITY.

NORTHEAST MONTANA


CITY           SKY/WX    TMP DP  RH WIND       PRES   REMARKS
GLASGOW        MOCLDY    55  45  68 W8        29.68R
PLENTYWOOD       N/A     59  40  49 NE5         N/A
WOLF POINT     MOCLDY    62  44  51 W18G26    29.64R
JORDAN           N/A     55  46  71 W15       29.74R
WINNETT          N/A     53  44  71 W13         N/A
SIDNEY         CLEAR     48  39  71 CALM      29.61S
GLENDIVE       MOCLDY    63  45  51 W12G17    29.66R
MALTA            N/A     52  46  80 W12         N/A
SCOBEY           N/A     58  41  53 W12       29.65

FORT PECK REPORTS


CITY           SKY/WX    TMP DP  RH WIND       PRES   REMARKS
FORT PECK        N/A     58  46  64 W12         N/A
THE PINES        N/A     57  42  57 W13         N/A

SOUTHEAST MONTANA


CITY           SKY/WX    TMP DP  RH WIND       PRES   REMARKS
BILLINGS       PTCLDY    52  31  44 W26G41    29.87R
MILES CITY     LGT RAIN  64  43  46 SW10      29.71R
BAKER          CLOUDY    61  45  55 NW9       29.69R
LIVINGSTON     MOCLDY    47  31  53 W25G32    29.95S

CENTRAL MONTANA


CITY           SKY/WX    TMP DP  RH WIND       PRES   REMARKS
HAVRE          LGT RAIN  49  47  93 SW20      29.78R
LEWISTOWN      LGT RAIN  44  39  82 W12G22    29.89R
GREAT FALLS    CLOUDY    44  39  82 SW17      29.86R
CUT BANK       CLOUDY    45  36  70 W18       29.81S
HELENA         CLOUDY    48  35  60 W10       29.96S
BUTTE          MOCLDY    36  34  92 CALM      30.03R
BOZEMAN        CLOUDY    39  37  92 NE3       30.01S

WESTERN MONTANA


CITY           SKY/WX    TMP DP  RH WIND       PRES   REMARKS
MISSOULA       CLOUDY    45  42  89 CALM      30.02R
KALISPELL      NOT AVBL

NORTH DAKOTA


CITY           SKY/WX    TMP DP  RH WIND       PRES   REMARKS
WILLISTON      PTCLDY    46  40  79 CALM      29.58S
DICKINSON      CLEAR     58  45  62 S8        29.62R
MINOT          CLEAR     59  46  62 SE9       29.59F
BISMARCK       CLEAR     66  41  40 SE15      29.68S

SOUTHERN SASKATCHEWAN


CITY           SKY/WX    TMP DP  RH WIND       PRES   REMARKS
REGINA         MOCLDY    54  45  71 SE13      29.57S
ESTEVAN        PTCLDY    48  41  76 E10       29.58F
SWIFT CURRENT  MOCLDY    52  39  62 W17G28    29.63S




USA.gov is the U.S. government's official web portal to all federal, state and local government web resources and services.